Starlink 3564

operational
NORAD ID: 52302 Int'l Des: 2022-041 Owner: SPXS Country: US Constellation: starlink
LEOCIRCULAR

About Starlink 3564

Description loading...

Live Position

Loading 3D Globe...

Upcoming Passes

Altitude History

Altitude vs Time

uPlot chart will show altitude changes over time

Two-Line Element Set

1 52302U 22041AT 25258.44253541 .00001203 00000-0 93638-4 0 9990
2 52302 53.2167 155.8368 0001293 88.8951 271.2189 15.08846655188182
Epoch: Sep 15, 2025 • Age: 22 hours

Current Status

Altitude 541.2 km
Velocity 7.60 km/s
Sub-Earth Point 32.31°N, 48.21°E
Launch Date Apr 21, 2022
Age 3.4 years
Type internet

Technical Details

Classification Payload
Mass 297.00 kg
Dry Mass 275.00 kg
Total Mass 297.00 kg
Length 0.20 m
Diameter 2.80 m
Span 9.00 m
Shape Box + pan
Manufacturer SPXS
Bus Type Starlink
Phase Status In Orbit
Owner/State SPXS/US

Large Constellations

Loading constellations...